Zurück zum Katalog

FENGYUN 1C DEB

AktivSSO
NORAD 37057·DEBRIS·🇨🇳 China

Gestartet May 10, 1999 von Taiyuan Satellite Launch Center

Loading…

Nächste Überflüge (nächste 24 Stunden)

TLE

AktuellSource: Space-Track

Epoche: Sep 11, 2026, 06:38 UTC

1 37057U 99025EER 26254.27657106  .00000113  00000-0  79140-4 0  9990
2 37057  98.9155 266.0278 0284534 108.0070 255.2318 13.96457916674019

Verfolge FENGYUN 1C DEB in Echtzeit mit AllMySat

Download on the App Store